TimePDT,TemperatureF,Dew PointF,Humidity,Sea Level PressureIn,VisibilityMPH,Wind Direction,Wind SpeedMPH,Gust SpeedMPH,PrecipitationIn,Events,Conditions,WindDirDegrees,DateUTC
12:53 AM,52.0,46.0,80,30.09,10.0,Calm,Calm,-,N/A,,Clear,0,2013-03-14 07:53:00
1:53 AM,50.0,46.0,86,30.09,10.0,SSW,4.6,-,N/A,,Clear,210,2013-03-14 08:53:00
2:53 AM,50.0,46.0,86,30.09,10.0,East,4.6,-,N/A,,Clear,80,2013-03-14 09:53:00
3:53 AM,50.0,45.0,83,30.07,10.0,Calm,Calm,-,N/A,,Clear,0,2013-03-14 10:53:00
4:53 AM,46.9,43.0,86,30.06,10.0,East,3.5,-,N/A,,Clear,100,2013-03-14 11:53:00
5:53 AM,48.0,44.1,86,30.06,10.0,ENE,3.5,-,N/A,,Clear,70,2013-03-14 12:53:00
6:53 AM,46.9,43.0,86,30.06,10.0,East,5.8,-,N/A,,Clear,90,2013-03-14 13:53:00
7:53 AM,46.0,43.0,89,30.09,10.0,Calm,Calm,-,N/A,,Clear,0,2013-03-14 14:53:00
8:53 AM,48.9,44.1,83,30.09,10.0,East,4.6,-,N/A,,Clear,100,2013-03-14 15:53:00
9:53 AM,50.0,45.0,83,30.11,10.0,ENE,3.5,-,N/A,,Clear,60,2013-03-14 16:53:00
10:53 AM,53.1,46.0,77,30.11,10.0,East,4.6,-,N/A,,Clear,90,2013-03-14 17:53:00
11:53 AM,57.0,48.0,72,30.10,10.0,Calm,Calm,-,N/A,,Clear,0,2013-03-14 18:53:00
12:53 PM,60.1,45.0,57,30.10,10.0,Variable,4.6,-,N/A,,Clear,0,2013-03-14 19:53:00
1:53 PM,60.1,44.1,55,30.11,10.0,SSW,5.8,-,N/A,,Partly Cloudy,210,2013-03-14 20:53:00
2:53 PM,61.0,43.0,52,30.12,10.0,SW,12.7,20.7,N/A,,Clear,220,2013-03-14 21:53:00
3:53 PM,61.0,39.0,44,30.11,10.0,WSW,8.1,-,N/A,,Clear,240,2013-03-14 22:53:00
4:53 PM,57.9,41.0,53,30.13,10.0,WSW,9.2,-,N/A,,Overcast,250,2013-03-14 23:53:00
6:53 PM,55.9,43.0,62,30.14,10.0,Calm,Calm,-,0.00,,Overcast,0,2013-03-15 01:53:00
7:53 PM,55.0,45.0,69,30.15,10.0,Calm,Calm,-,0.00,,Overcast,0,2013-03-15 02:53:00
8:53 PM,53.1,46.0,77,30.17,10.0,East,3.5,-,N/A,,Overcast,90,2013-03-15 03:53:00
9:53 PM,53.1,46.9,80,30.19,10.0,Calm,Calm,-,0.00,,Overcast,0,2013-03-15 04:53:00
10:53 PM,52.0,48.0,86,30.21,10.0,East,4.6,-,0.00,,Overcast,90,2013-03-15 05:53:00
11:53 PM,52.0,46.9,83,30.21,10.0,East,3.5,-,N/A,,Overcast,80,2013-03-15 06:53:00